^^
Saratoga-Weather Station Historical Data
Daily Summary for August 5, 2021 Units:  Metric    English   Both
Daily Weekly Monthly Yearly Custom
  High: Low: Average:
Temperature: 16.6 °C 8.4 °C 11.3 °C
Dew Point: 12.4 °C 7.8 °C 9.9 °C
Humidity: 97% 73% 91%
Wind Speed: 22.5km/h 0km/h 2.3km/h
Wind Gust: 22.5km/h - -
Wind- - South
Pressure: 1014.9 hPa 1006.1 hPa -
Precipitation: 7.6 mm    
Historical Graphs
 
 
Tabular Data for August 5, 2021
Time Temperature Dew Point Pressure Wind Wind Speed Wind Gust Humidity Rainfall Rate (Hourly) solar
00:04 9.2 °C 8.4 °C 1014.9 hPa Calm     95% 0.0 mm 0 W/m2
00:09 9.2 °C 8.4 °C 1014.9 hPa Calm     95% 0.0 mm 0 W/m2
00:14 9.2 °C 8.4 °C 1014.9 hPa Calm     95% 0.0 mm 0 W/m2
00:19 9.1 °C 8.3 °C 1014.9 hPa Calm     95% 0.0 mm 0 W/m2
00:24 9.1 °C 8.3 °C 1014.9 hPa Calm     95% 0.0 mm 0 W/m2
00:29 9 °C 8.2 °C 1014.6 hPa Calm     95% 0.0 mm 0 W/m2
00:35 8.9 °C 8.1 °C 1014.6 hPa Calm     95% 0.0 mm 0 W/m2
00:40 8.9 °C 8.1 °C 1014.6 hPa Calm     95% 0.0 mm 0 W/m2
00:45 8.8 °C 8 °C 1014.6 hPa Calm     95% 0.0 mm 0 W/m2
00:50 8.8 °C 8 °C 1014.6 hPa Calm     95% 0.0 mm 0 W/m2
00:55 8.7 °C 7.9 °C 1014.2 hPa Calm     95% 0.0 mm 0 W/m2
01:00 8.7 °C 7.9 °C 1014.2 hPa Calm     95% 0.0 mm 0 W/m2
01:05 8.7 °C 8.1 °C 1014.2 hPa Calm     96% 0.0 mm 0 W/m2
01:10 8.8 °C 8.2 °C 1014.2 hPa Calm     96% 0.0 mm 0 W/m2
01:15 8.8 °C 8.2 °C 1014.2 hPa Calm     96% 0.0 mm 0 W/m2
01:20 8.8 °C 8 °C 1014.2 hPa Calm     95% 0.0 mm 0 W/m2
01:25 8.8 °C 8.2 °C 1014.2 hPa Calm     96% 0.0 mm 0 W/m2
01:30 8.9 °C 8.3 °C 1014.2 hPa Calm     96% 0.0 mm 0 W/m2
01:35 8.9 °C 8.3 °C 1013.9 hPa Calm     96% 0.0 mm 0 W/m2
01:40 8.9 °C 8.3 °C 1013.9 hPa Calm     96% 0.0 mm 0 W/m2
01:45 8.9 °C 8.3 °C 1013.9 hPa Calm     96% 0.0 mm 0 W/m2
01:50 9 °C 8.4 °C 1013.9 hPa Calm     96% 0.0 mm 0 W/m2
01:55 9 °C 8.4 °C 1013.9 hPa Calm     96% 0.0 mm 0 W/m2
02:00 9.1 °C 8.5 °C 1013.9 hPa Calm     96% 0.0 mm 0 W/m2
02:05 9.1 °C 8.5 °C 1013.9 hPa Calm     96% 0.0 mm 0 W/m2
02:10 9.1 °C 8.5 °C 1013.9 hPa Calm     96% 0.0 mm 0 W/m2
02:15 9.1 °C 8.5 °C 1013.9 hPa Calm     96% 0.0 mm 0 W/m2
02:20 9.1 °C 8.5 °C 1013.9 hPa Calm     96% 0.0 mm 0 W/m2
02:25 9.1 °C 8.5 °C 1013.9 hPa Calm     96% 0.0 mm 0 W/m2
02:30 9.1 °C 8.5 °C 1013.9 hPa Calm     96% 0.0 mm 0 W/m2
02:35 9.1 °C 8.5 °C 1013.9 hPa Calm     96% 0.0 mm 0 W/m2
02:40 9.1 °C 8.5 °C 1013.9 hPa Calm     96% 0.0 mm 0 W/m2
02:45 9.1 °C 8.5 °C 1013.5 hPa Calm     96% 0.0 mm 0 W/m2
02:50 9 °C 8.4 °C 1013.9 hPa Calm     96% 0.0 mm 0 W/m2
02:55 8.9 °C 8.3 °C 1013.9 hPa Calm     96% 0.0 mm 0 W/m2
03:00 8.9 °C 8.3 °C 1013.5 hPa Calm     96% 0.0 mm 0 W/m2
03:05 8.9 °C 8.3 °C 1013.5 hPa Calm     96% 0.0 mm 0 W/m2
03:10 8.9 °C 8.3 °C 1013.5 hPa Calm     96% 0.0 mm 0 W/m2
03:15 8.8 °C 8.2 °C 1013.5 hPa Calm     96% 0.0 mm 0 W/m2
03:20 8.8 °C 8.2 °C 1013.2 hPa Calm     96% 0.0 mm 0 W/m2
03:25 8.8 °C 8.2 °C 1013.2 hPa Calm     96% 0.0 mm 0 W/m2
03:30 8.8 °C 8.2 °C 1013.2 hPa Calm     96% 0.0 mm 0 W/m2
03:35 8.8 °C 8.2 °C 1013.2 hPa Calm     96% 0.0 mm 0 W/m2
03:40 8.8 °C 8.2 °C 1012.9 hPa Calm     96% 0.0 mm 0 W/m2
03:45 8.8 °C 8.2 °C 1012.9 hPa Calm     96% 0.0 mm 0 W/m2
03:50 8.8 °C 8.2 °C 1012.9 hPa Calm     96% 0.0 mm 0 W/m2
03:55 8.7 °C 8.1 °C 1012.9 hPa Calm     96% 0.0 mm 0 W/m2
04:00 8.7 °C 8.1 °C 1012.5 hPa Calm     96% 0.0 mm 0 W/m2
04:05 8.7 °C 8.1 °C 1012.5 hPa Calm     96% 0.0 mm 0 W/m2
04:10 8.7 °C 8.1 °C 1012.5 hPa Calm     96% 0.0 mm 0 W/m2
04:15 8.6 °C 8 °C 1012.5 hPa Calm     96% 0.0 mm 0 W/m2
04:20 8.6 °C 8 °C 1012.5 hPa Calm     96% 0.0 mm 0 W/m2
04:25 8.6 °C 8 °C 1012.5 hPa Calm     96% 0.0 mm 0 W/m2
04:30 8.6 °C 8 °C 1012.2 hPa Calm     96% 0.0 mm 0 W/m2
04:35 8.6 °C 8 °C 1012.2 hPa Calm     96% 0.0 mm 0 W/m2
04:40 8.6 °C 8 °C 1012.2 hPa Calm     96% 0.0 mm 0 W/m2
04:45 8.6 °C 8 °C 1012.2 hPa Calm     96% 0.0 mm 0 W/m2
04:50 8.5 °C 7.9 °C 1011.9 hPa Calm     96% 0.0 mm 0 W/m2
04:55 8.6 °C 8 °C 1011.9 hPa Calm     96% 0.0 mm 0 W/m2
05:00 8.5 °C 7.9 °C 1011.9 hPa Calm     96% 0.0 mm 0 W/m2
05:05 8.4 °C 7.8 °C 1011.9 hPa Calm     96% 0.0 mm 0 W/m2
05:10 8.4 °C 7.8 °C 1011.5 hPa Calm     96% 0.0 mm 0 W/m2
05:15 8.5 °C 7.9 °C 1011.5 hPa Calm     96% 0.0 mm 0 W/m2
05:20 8.6 °C 8 °C 1011.5 hPa Calm     96% 0.0 mm 0 W/m2
05:25 8.6 °C 8 °C 1011.5 hPa Calm     96% 0.0 mm 0 W/m2
05:30 8.7 °C 8.3 °C 1011.2 hPa Calm     97% 0.0 mm 0 W/m2
05:35 8.7 °C 8.3 °C 1011.2 hPa Calm     97% 0.0 mm 0 W/m2
05:40 8.8 °C 8.3 °C 1011.2 hPa Calm     97% 0.0 mm 0 W/m2
05:45 8.8 °C 8.3 °C 1011.2 hPa Calm     97% 0.0 mm 0 W/m2
05:50 8.8 °C 8.2 °C 1011.2 hPa Calm     96% 0.0 mm 0 W/m2
05:55 8.8 °C 8.3 °C 1010.8 hPa Calm     97% 0.0 mm 0 W/m2
06:00 8.8 °C 8.3 °C 1011.2 hPa Calm     97% 0.0 mm 0 W/m2
06:06 8.7 °C 8.1 °C 1011.2 hPa Calm     96% 0.0 mm 0 W/m2
06:11 8.7 °C 8.1 °C 1010.8 hPa Calm     96% 0.0 mm 0 W/m2
06:16 8.7 °C 8.3 °C 1010.8 hPa Calm     97% 0.0 mm 0 W/m2
06:21 8.7 °C 8.3 °C 1010.8 hPa Calm     97% 0.0 mm 0 W/m2
06:26 8.7 °C 8.3 °C 1010.8 hPa Calm     97% 0.0 mm 0 W/m2
06:31 8.7 °C 8.3 °C 1010.8 hPa Calm     97% 0.0 mm 0 W/m2
06:36 8.6 °C 8 °C 1010.8 hPa Calm     96% 0.0 mm 0 W/m2
06:41 8.6 °C 8 °C 1010.8 hPa Calm     96% 0.0 mm 0 W/m2
06:46 8.6 °C 8 °C 1010.8 hPa Calm     96% 0.0 mm 0 W/m2
06:51 8.6 °C 8 °C 1010.5 hPa Calm     96% 0.0 mm 0 W/m2
06:56 8.6 °C 8 °C 1010.5 hPa Calm     96% 0.0 mm 0 W/m2
07:01 8.6 °C 8 °C 1010.5 hPa Calm     96% 0.0 mm 0 W/m2
07:06 8.6 °C 8 °C 1010.5 hPa Calm     96% 0.0 mm 0 W/m2
07:11 8.6 °C 8.2 °C 1010.5 hPa Calm   3.2 km/h 97% 0.0 mm 0 W/m2
07:16 8.7 °C 8.3 °C 1010.5 hPa Calm   1.6 km/h 97% 0.0 mm 0 W/m2
07:21 8.7 °C 8.3 °C 1010.2 hPa Calm     97% 0.0 mm 0 W/m2
07:26 8.7 °C 8.3 °C 1010.2 hPa Calm     97% 0.0 mm 0 W/m2
07:31 8.7 °C 8.3 °C 1010.2 hPa Calm     97% 0.0 mm 0 W/m2
07:36 8.7 °C 8.3 °C 1010.2 hPa Calm     97% 0.0 mm 0 W/m2
07:41 8.7 °C 8.3 °C 1010.2 hPa Calm     97% 0.0 mm 0 W/m2
07:46 8.8 °C 8.3 °C 1010.2 hPa Calm   1.6 km/h 97% 0.0 mm 0 W/m2
07:51 8.8 °C 8.3 °C 1010.2 hPa Calm     97% 0.0 mm 5 W/m2
07:56 8.8 °C 8.3 °C 1010.2 hPa Calm   1.6 km/h 97% 0.0 mm 7 W/m2
08:01 8.8 °C 8.3 °C 1009.8 hPa Calm     97% 0.0 mm 9 W/m2
08:06 8.9 °C 8.4 °C 1009.8 hPa Calm   3.2 km/h 97% 0.0 mm 11 W/m2
08:11 8.9 °C 8.4 °C 1009.8 hPa Calm     97% 0.0 mm 12 W/m2
08:16 9 °C 8.5 °C 1009.8 hPa Calm   3.2 km/h 97% 0.0 mm 18 W/m2
08:21 9 °C 8.5 °C 1009.8 hPa Calm     97% 0.0 mm 19 W/m2
08:26 9 °C 8.5 °C 1010.2 hPa Calm     97% 0.0 mm 14 W/m2
08:31 9 °C 8.5 °C 1009.8 hPa Calm     97% 0.0 mm 14 W/m2
08:36 8.9 °C 8.4 °C 1009.8 hPa Calm     97% 0.0 mm 16 W/m2
08:41 8.9 °C 8.4 °C 1010.2 hPa Calm     97% 0.0 mm 21 W/m2
08:46 8.9 °C 8.4 °C 1010.2 hPa Calm     97% 0.0 mm 23 W/m2
08:51 8.8 °C 8.3 °C 1010.2 hPa Calm     97% 0.0 mm 26 W/m2
08:56 8.8 °C 8.3 °C 1009.8 hPa Calm     97% 0.0 mm 30 W/m2
09:01 8.8 °C 8.3 °C 1009.8 hPa Calm     97% 0.0 mm 25 W/m2
09:06 8.8 °C 8.3 °C 1009.8 hPa Calm     97% 0.0 mm 32 W/m2
09:11 8.8 °C 8.3 °C 1009.8 hPa Calm     97% 0.0 mm 46 W/m2
09:16 8.8 °C 8.3 °C 1009.8 hPa Calm     97% 0.0 mm 46 W/m2
09:21 8.9 °C 8.4 °C 1009.8 hPa Calm     97% 0.0 mm 176 W/m2
09:26 9.1 °C 8.6 °C 1009.8 hPa Calm   1.6 km/h 97% 0.0 mm 199 W/m2
09:31 9.3 °C 8.8 °C 1009.5 hPa Calm     97% 0.0 mm 230 W/m2
09:36 9.5 °C 9 °C 1009.5 hPa Calm   1.6 km/h 97% 0.0 mm 232 W/m2
09:41 9.6 °C 9.1 °C 1009.1 hPa Calm     97% 0.0 mm 232 W/m2
09:46 9.8 °C 9.3 °C 1009.1 hPa East 1.6 km/h 1.6 km/h 97% 0.0 mm 156 W/m2
09:51 10 °C 9.5 °C 1009.1 hPa Calm     97% 0.0 mm 223 W/m2
09:56 10.2 °C 9.7 °C 1009.1 hPa Calm   1.6 km/h 97% 0.0 mm 265 W/m2
10:01 10.4 °C 9.9 °C 1009.1 hPa Calm   3.2 km/h 97% 0.0 mm 265 W/m2
10:06 10.7 °C 10.2 °C 1009.1 hPa Calm     97% 0.0 mm 279 W/m2
10:11 10.9 °C 10.4 °C 1009.1 hPa North 3.2 km/h 3.2 km/h 97% 0.0 mm 53 W/m2
10:16 11.1 °C 10.6 °C 1009.1 hPa ENE 1.4 km/h 6.4 km/h 97% 0.0 mm 320 W/m2
10:21 11.4 °C 10.9 °C 1009.1 hPa NE 1.4 km/h 6.4 km/h 97% 0.0 mm 63 W/m2
10:26 11.7 °C 11.2 °C 1009.1 hPa North 1.4 km/h 3.2 km/h 97% 0.0 mm 327 W/m2
10:31 12.1 °C 11.6 °C 1009.1 hPa East 3.2 km/h 11.3 km/h 97% 0.0 mm 255 W/m2
10:36 12.4 °C 11.6 °C 1008.8 hPa North 3.2 km/h 4.8 km/h 95% 0.0 mm 364 W/m2
10:41 12.8 °C 11.7 °C 1008.8 hPa East 4.7 km/h 11.3 km/h 93% 0.0 mm 369 W/m2
10:46 13.1 °C 11.7 °C 1008.8 hPa Calm   3.2 km/h 91% 0.0 mm 376 W/m2
10:51 13.4 °C 11.8 °C 1008.8 hPa NE 4.7 km/h 6.4 km/h 90% 0.0 mm 406 W/m2
10:56 13.6 °C 11.6 °C 1008.5 hPa NNE 1.4 km/h 3.2 km/h 88% 0.0 mm 432 W/m2
11:01 13.7 °C 11.4 °C 1008.5 hPa ENE 1.4 km/h 6.4 km/h 86% 0.0 mm 388 W/m2
11:06 13.9 °C 11.6 °C 1008.5 hPa WNW 1.4 km/h 3.2 km/h 86% 0.0 mm 424 W/m2
11:11 14.2 °C 11.7 °C 1008.5 hPa East 6.4 km/h 9.7 km/h 85% 0.0 mm 438 W/m2
11:16 14.4 °C 11.5 °C 1008.5 hPa ENE 6.4 km/h 12.9 km/h 83% 0.0 mm 461 W/m2
11:21 14.6 °C 11.6 °C 1008.5 hPa North 1.4 km/h 6.4 km/h 82% 0.0 mm 434 W/m2
11:26 14.7 °C 11.7 °C 1008.5 hPa ESE 6.4 km/h 8 km/h 82% 0.0 mm 547 W/m2
11:31 14.8 °C 11.8 °C 1008.1 hPa NE 4.7 km/h 6.4 km/h 82% 0.0 mm 100 W/m2
11:36 14.9 °C 11.7 °C 1008.1 hPa East 6.4 km/h 6.4 km/h 81% 0.0 mm 162 W/m2
11:41 14.9 °C 11.7 °C 1008.1 hPa North 1.4 km/h 3.2 km/h 81% 0.0 mm 431 W/m2
11:46 15.1 °C 11.9 °C 1008.1 hPa NE 7.9 km/h 9.7 km/h 81% 0.0 mm 520 W/m2
11:51 15.2 °C 11.8 °C 1007.8 hPa East 9.7 km/h 9.7 km/h 80% 0.0 mm 97 W/m2
11:57 15.2 °C 11.8 °C 1007.8 hPa ENE 4.7 km/h 8 km/h 80% 0.0 mm 373 W/m2
12:02 15.2 °C 12 °C 1007.8 hPa WNW 6.4 km/h 6.4 km/h 81% 0.0 mm 399 W/m2
12:07 15.2 °C 12 °C 1007.5 hPa East 6.4 km/h 6.4 km/h 81% 0.0 mm 244 W/m2
12:12 15.4 °C 12 °C 1007.5 hPa NW 4.7 km/h 8 km/h 80% 0.0 mm 174 W/m2
12:17 15.7 °C 12.3 °C 1007.5 hPa ESE 4.7 km/h 14.5 km/h 80% 0.0 mm 366 W/m2
12:22 15.8 °C 12.4 °C 1007.5 hPa NE 3.2 km/h 8 km/h 80% 0.0 mm 192 W/m2
12:27 16.1 °C 12.3 °C 1007.5 hPa SE 14.3 km/h 14.5 km/h 78% 0.0 mm 214 W/m2
12:32 16.2 °C 12.2 °C 1007.5 hPa NE 1.4 km/h 12.9 km/h 77% 0.0 mm 446 W/m2
12:37 16.3 °C 12.1 °C 1007.5 hPa ENE 6.4 km/h 11.3 km/h 76% 0.0 mm 214 W/m2
12:42 16.4 °C 12 °C 1007.5 hPa NW 1.4 km/h 11.3 km/h 75% 0.0 mm 638 W/m2
12:47 16.5 °C 12.1 °C 1007.5 hPa NE 7.9 km/h 9.7 km/h 75% 0.0 mm 197 W/m2
12:52 16.4 °C 11.8 °C 1007.5 hPa North 1.4 km/h 9.7 km/h 74% 0.0 mm 188 W/m2
12:57 16.6 °C 11.9 °C 1007.5 hPa East 16.3 km/h 17.7 km/h 74% 0.0 mm 287 W/m2
13:02 16.6 °C 11.7 °C 1007.5 hPa ENE 4.7 km/h 12.9 km/h 73% 0.0 mm 209 W/m2
13:07 16.5 °C 11.6 °C 1007.1 hPa NNW 22.5 km/h 22.5 km/h 73% 0.0 mm 190 W/m2
13:12 16.5 °C 11.8 °C 1007.5 hPa NE 1.4 km/h 4.8 km/h 74% 0.0 mm 155 W/m2
13:17 16.4 °C 11.5 °C 1007.5 hPa NE 17.7 km/h 17.7 km/h 73% 0.0 mm 220 W/m2
13:22 16.4 °C 11.8 °C 1007.1 hPa East 3.2 km/h 3.2 km/h 74% 0.0 mm 211 W/m2
13:27 16.4 °C 11.8 °C 1007.1 hPa ENE 3.2 km/h 8 km/h 74% 0.0 mm 232 W/m2
13:32 16.4 °C 11.8 °C 1007.1 hPa ENE 7.9 km/h 8 km/h 74% 0.0 mm 146 W/m2
13:37 16.3 °C 11.7 °C 1007.1 hPa ENE 6.4 km/h 8 km/h 74% 0.0 mm 113 W/m2
13:42 16.3 °C 11.9 °C 1006.8 hPa ENE 1.4 km/h 9.7 km/h 75% 0.0 mm 192 W/m2
13:47 16.3 °C 12.1 °C 1006.8 hPa North 3.2 km/h 9.7 km/h 76% 0.0 mm 216 W/m2
13:52 16.4 °C 11.8 °C 1006.8 hPa WNW 11.1 km/h 11.3 km/h 74% 0.0 mm 104 W/m2
13:57 16.4 °C 11.8 °C 1006.4 hPa ENE 4.7 km/h 8 km/h 74% 0.0 mm 97 W/m2
14:02 16.3 °C 11.7 °C 1006.4 hPa NNW 7.9 km/h 8 km/h 74% 0.0 mm 72 W/m2
14:07 16.2 °C 11.8 °C 1006.4 hPa North 3.2 km/h 9.7 km/h 75% 0.0 mm 56 W/m2
14:12 16.1 °C 11.7 °C 1006.4 hPa Calm   9.7 km/h 75% 0.0 mm 46 W/m2
14:17 16 °C 11.6 °C 1006.4 hPa East 4.7 km/h 6.4 km/h 75% 0.0 mm 65 W/m2
14:22 16 °C 12 °C 1006.4 hPa NE 1.4 km/h 6.4 km/h 77% 0.0 mm 114 W/m2
14:27 15.9 °C 11.9 °C 1006.4 hPa West 4.7 km/h 6.4 km/h 77% 0.0 mm 77 W/m2
14:32 15.8 °C 12.2 °C 1006.4 hPa SE 4.7 km/h 4.8 km/h 79% 0.0 mm 56 W/m2
14:37 15.7 °C 12.1 °C 1006.4 hPa ENE 12.9 km/h 12.9 km/h 79% 0.0 mm 102 W/m2
14:42 15.6 °C 12.4 °C 1006.4 hPa NNE 4.7 km/h 4.8 km/h 81% 0.0 mm 88 W/m2
14:47 15.4 °C 12.3 °C 1006.4 hPa ENE 3.2 km/h 11.3 km/h 82% 0.0 mm 65 W/m2
14:52 15.2 °C 12.3 °C 1006.1 hPa NW 6.4 km/h 12.9 km/h 83% 0.2 mm 93 W/m2
14:57 15.1 °C 12.2 °C 1006.4 hPa NW 3.2 km/h 6.4 km/h 83% 0.2 mm 83 W/m2
15:02 14.9 °C 12.2 °C 1006.4 hPa NW 12.9 km/h 12.9 km/h 84% 0.5 mm 84 W/m2
15:07 14.8 °C 12.3 °C 1006.4 hPa ENE 1.4 km/h 9.7 km/h 85% 0.5 mm 58 W/m2
15:12 14.7 °C 12.2 °C 1006.4 hPa ENE 4.7 km/h 8 km/h 85% 0.5 mm 42 W/m2
15:17 14.6 °C 12.3 °C 1006.4 hPa NNE 1.4 km/h 9.7 km/h 86% 0.8 mm 49 W/m2
15:22 14.4 °C 12.3 °C 1006.4 hPa NE 3.2 km/h 8 km/h 87% 1.0 mm 63 W/m2
15:27 14.3 °C 12.3 °C 1006.4 hPa ENE 4.7 km/h 6.4 km/h 88% 1.5 mm 67 W/m2
15:32 14.2 °C 12.2 °C 1006.4 hPa NNE 3.2 km/h 8 km/h 88% 1.8 mm 72 W/m2
15:37 14.1 °C 12.3 °C 1006.1 hPa NNW 3.2 km/h 6.4 km/h 89% 2.0 mm 60 W/m2
15:42 13.9 °C 12.3 °C 1006.1 hPa Calm   3.2 km/h 90% 2.3 mm 42 W/m2
15:47 13.9 °C 12.3 °C 1006.1 hPa WSW 1.4 km/h 3.2 km/h 90% 2.3 mm 23 W/m2
15:52 13.8 °C 12.2 °C 1006.4 hPa NE 3.2 km/h 4.8 km/h 90% 2.3 mm 28 W/m2
15:57 13.8 °C 12.4 °C 1006.4 hPa NNE 1.4 km/h 4.8 km/h 91% 2.5 mm 56 W/m2
16:02 13.7 °C 12.3 °C 1006.4 hPa NE 4.7 km/h 8 km/h 91% 2.5 mm 42 W/m2
16:07 13.7 °C 12.3 °C 1006.1 hPa NE 3.2 km/h 11.3 km/h 91% 2.5 mm 54 W/m2
16:12 13.6 °C 12.2 °C 1006.4 hPa NW 1.4 km/h 6.4 km/h 91% 2.8 mm 86 W/m2
16:17 13.4 °C 12 °C 1006.1 hPa NNE 4.7 km/h 6.4 km/h 91% 2.8 mm 62 W/m2
16:22 13.4 °C 12 °C 1006.1 hPa ENE 1.4 km/h 6.4 km/h 91% 2.5 mm 93 W/m2
16:27 13.4 °C 12.1 °C 1006.4 hPa NW 3.2 km/h 6.4 km/h 92% 2.3 mm 97 W/m2
16:32 13.3 °C 12 °C 1006.1 hPa East 4.7 km/h 4.8 km/h 92% 2.0 mm 91 W/m2
16:37 13.3 °C 12 °C 1006.4 hPa ENE 1.4 km/h 8 km/h 92% 2.0 mm 47 W/m2
16:42 13.3 °C 12 °C 1006.4 hPa NE 3.2 km/h 9.7 km/h 92% 1.8 mm 46 W/m2
16:47 13.3 °C 12 °C 1006.4 hPa NE 3.2 km/h 6.4 km/h 92% 1.8 mm 33 W/m2
16:52 13.3 °C 12 °C 1006.1 hPa NE 1.4 km/h 9.7 km/h 92% 1.5 mm 47 W/m2
16:57 13.3 °C 12 °C 1006.1 hPa North 4.7 km/h 4.8 km/h 92% 1.5 mm 40 W/m2
17:02 13.3 °C 12.2 °C 1006.4 hPa NNE 3.2 km/h 3.2 km/h 93% 1.5 mm 35 W/m2
17:07 13.2 °C 12.1 °C 1006.4 hPa ENE 4.7 km/h 6.4 km/h 93% 1.5 mm 28 W/m2
17:12 13.2 °C 12.1 °C 1006.4 hPa ENE 7.9 km/h 8 km/h 93% 1.8 mm 37 W/m2
17:17 13.2 °C 12.1 °C 1006.4 hPa NE 7.9 km/h 9.7 km/h 93% 1.8 mm 60 W/m2
17:22 13.2 °C 12.1 °C 1006.1 hPa Calm   6.4 km/h 93% 2.0 mm 56 W/m2
17:27 13.2 °C 12.1 °C 1006.1 hPa NNW 3.2 km/h 8 km/h 93% 2.0 mm 44 W/m2
17:32 13.2 °C 12.3 °C 1006.4 hPa North 3.2 km/h 6.4 km/h 94% 2.3 mm 33 W/m2
17:37 13.2 °C 12.3 °C 1006.4 hPa NNW 6.4 km/h 6.4 km/h 94% 2.3 mm 12 W/m2
17:42 13.2 °C 12.1 °C 1006.8 hPa ENE 1.4 km/h 6.4 km/h 93% 2.5 mm 12 W/m2
17:48 13.2 °C 12.1 °C 1006.8 hPa West 4.7 km/h 8 km/h 93% 2.3 mm 47 W/m2
17:53 13.1 °C 12 °C 1006.8 hPa West 4.7 km/h 11.3 km/h 93% 2.3 mm 53 W/m2
17:58 13 °C 11.7 °C 1006.8 hPa WSW 7.9 km/h 16.1 km/h 92% 2.3 mm 35 W/m2
18:03 12.9 °C 11.5 °C 1007.1 hPa WSW 6.4 km/h 12.9 km/h 91% 2.3 mm 86 W/m2
18:08 12.9 °C 11.3 °C 1007.5 hPa WSW 6.4 km/h 14.5 km/h 90% 2.0 mm 77 W/m2
18:13 12.8 °C 11.2 °C 1007.5 hPa WSW 7.9 km/h 8 km/h 90% 1.5 mm 39 W/m2
18:18 12.7 °C 11.1 °C 1007.5 hPa WNW 6.4 km/h 14.5 km/h 90% 1.5 mm 21 W/m2
18:23 12.6 °C 11 °C 1007.5 hPa WSW 4.7 km/h 12.9 km/h 90% 1.3 mm 21 W/m2
18:28 12.4 °C 11 °C 1007.5 hPa West 4.7 km/h 9.7 km/h 91% 1.0 mm 14 W/m2
18:33 12.3 °C 10.9 °C 1007.8 hPa WNW 6.4 km/h 9.7 km/h 91% 0.8 mm 11 W/m2
18:38 12.3 °C 10.9 °C 1007.8 hPa NW 13 km/h 17.7 km/h 91% 0.5 mm 9 W/m2
18:43 12.2 °C 10.8 °C 1008.1 hPa West 3.2 km/h 8 km/h 91% 0.2 mm 9 W/m2
18:48 12.2 °C 10.8 °C 1008.1 hPa West 4.7 km/h 17.7 km/h 91% 0.2 mm 7 W/m2
18:53 12.1 °C 10.7 °C 1008.1 hPa West 4.7 km/h 9.7 km/h 91% 0.2 mm 7 W/m2
18:58 12.1 °C 10.7 °C 1008.1 hPa NW 3.2 km/h 8 km/h 91% 0.2 mm 5 W/m2
19:03 12.1 °C 10.7 °C 1008.5 hPa West 1.4 km/h 6.4 km/h 91% 0.0 mm 0 W/m2
19:08 12.1 °C 10.8 °C 1008.5 hPa Calm   4.8 km/h 92% 0.0 mm 0 W/m2
19:13 12 °C 10.7 °C 1008.5 hPa Calm   6.4 km/h 92% 0.0 mm 0 W/m2
19:18 12 °C 10.7 °C 1008.5 hPa West 3.2 km/h 6.4 km/h 92% 0.0 mm 0 W/m2
19:23 12 °C 10.7 °C 1008.5 hPa North 1.4 km/h 14.5 km/h 92% 0.0 mm 0 W/m2
19:28 11.9 °C 10.6 °C 1008.8 hPa West 13 km/h 12.9 km/h 92% 0.0 mm 0 W/m2
19:33 11.8 °C 10.4 °C 1008.8 hPa NNW 1.4 km/h 8 km/h 91% 0.0 mm 0 W/m2
19:38 11.8 °C 10.4 °C 1008.8 hPa NNE 1.4 km/h 3.2 km/h 91% 0.0 mm 0 W/m2
19:43 11.7 °C 10.3 °C 1008.8 hPa NNW 4.7 km/h 8 km/h 91% 0.0 mm 0 W/m2
19:48 11.7 °C 10.1 °C 1009.1 hPa SW 3.2 km/h 8 km/h 90% 0.0 mm 0 W/m2
19:53 11.7 °C 10.1 °C 1009.1 hPa Calm   4.8 km/h 90% 0.0 mm 0 W/m2
19:58 11.7 °C 10.1 °C 1009.1 hPa SE 3.2 km/h 8 km/h 90% 0.0 mm 0 W/m2
20:03 11.7 °C 10.1 °C 1009.1 hPa NNW 3.2 km/h 4.8 km/h 90% 0.0 mm 0 W/m2
20:08 11.7 °C 10.1 °C 1009.5 hPa NW 4.7 km/h 4.8 km/h 90% 0.0 mm 0 W/m2
20:13 11.6 °C 10 °C 1009.5 hPa WNW 3.2 km/h 4.8 km/h 90% 0.0 mm 0 W/m2
20:18 11.4 °C 9.8 °C 1009.5 hPa WSW 7.9 km/h 12.9 km/h 90% 0.0 mm 0 W/m2
20:23 11.3 °C 9.7 °C 1009.5 hPa NW 7.9 km/h 8 km/h 90% 0.0 mm 0 W/m2
20:28 11.2 °C 9.6 °C 1009.8 hPa West 4.7 km/h 12.9 km/h 90% 0.0 mm 0 W/m2
20:33 11.1 °C 9.4 °C 1009.8 hPa WSW 13 km/h 12.9 km/h 89% 0.0 mm 0 W/m2
20:38 11.2 °C 9.5 °C 1009.8 hPa West 4.7 km/h 12.9 km/h 89% 0.0 mm 0 W/m2
20:43 11.2 °C 9.5 °C 1009.8 hPa West 3.2 km/h 4.8 km/h 89% 0.0 mm 0 W/m2
20:48 11.1 °C 9.4 °C 1010.2 hPa NW 3.2 km/h 6.4 km/h 89% 0.0 mm 0 W/m2
20:53 11.1 °C 9.4 °C 1010.2 hPa NNW 6.4 km/h 6.4 km/h 89% 0.0 mm 0 W/m2
20:58 11 °C 9.4 °C 1010.2 hPa Calm   4.8 km/h 90% 0.0 mm 0 W/m2
21:03 11 °C 9.4 °C 1010.5 hPa Calm   1.6 km/h 90% 0.0 mm 0 W/m2
21:08 10.9 °C 9.3 °C 1010.8 hPa WNW 1.4 km/h 4.8 km/h 90% 0.0 mm 0 W/m2
21:13 11 °C 9.6 °C 1010.8 hPa WNW 1.4 km/h 6.4 km/h 91% 0.0 mm 0 W/m2
21:18 10.9 °C 9.3 °C 1010.8 hPa NW 4.7 km/h 14.5 km/h 90% 0.2 mm 0 W/m2
21:23 10.8 °C 9.4 °C 1010.8 hPa WNW 4.7 km/h 4.8 km/h 91% 0.5 mm 0 W/m2
21:28 10.8 °C 9.4 °C 1010.5 hPa Calm   6.4 km/h 91% 0.5 mm 0 W/m2
21:33 10.7 °C 9.3 °C 1010.8 hPa Calm   3.2 km/h 91% 0.5 mm 0 W/m2
21:38 10.7 °C 9.3 °C 1010.8 hPa NW 4.7 km/h 8 km/h 91% 0.5 mm 0 W/m2
21:43 10.6 °C 9.2 °C 1010.8 hPa West 1.4 km/h 3.2 km/h 91% 0.5 mm 0 W/m2
21:48 10.5 °C 9.1 °C 1010.8 hPa Calm   4.8 km/h 91% 0.5 mm 0 W/m2
21:53 10.4 °C 9 °C 1010.8 hPa South 1.4 km/h 3.2 km/h 91% 0.5 mm 0 W/m2
21:58 10.4 °C 9 °C 1010.8 hPa West 3.2 km/h 6.4 km/h 91% 0.5 mm 0 W/m2
22:03 10.4 °C 9 °C 1010.8 hPa NW 1.4 km/h 6.4 km/h 91% 0.5 mm 0 W/m2
22:08 10.4 °C 9 °C 1010.8 hPa ENE 1.4 km/h 8 km/h 91% 0.5 mm 0 W/m2
22:13 10.4 °C 9.2 °C 1011.2 hPa Calm   1.6 km/h 92% 0.5 mm 0 W/m2
22:18 10.3 °C 8.9 °C 1011.2 hPa NNW 3.2 km/h 8 km/h 91% 0.5 mm 0 W/m2
22:23 10.2 °C 9 °C 1011.2 hPa WNW 3.2 km/h 3.2 km/h 92% 0.0 mm 0 W/m2
22:28 10.2 °C 9 °C 1011.2 hPa NE 1.4 km/h 4.8 km/h 92% 0.0 mm 0 W/m2
22:33 10.2 °C 9 °C 1011.5 hPa NNE 1.4 km/h 3.2 km/h 92% 0.0 mm 0 W/m2
22:38 10.1 °C 8.9 °C 1011.5 hPa Calm   1.6 km/h 92% 0.0 mm 0 W/m2
22:43 10.1 °C 9 °C 1011.5 hPa NNW 1.4 km/h 3.2 km/h 93% 0.0 mm 0 W/m2
22:48 10.1 °C 9 °C 1011.5 hPa WNW 4.7 km/h 8 km/h 93% 0.0 mm 0 W/m2
22:53 10.2 °C 9.1 °C 1011.5 hPa North 1.4 km/h 4.8 km/h 93% 0.0 mm 0 W/m2
22:58 10.2 °C 9.1 °C 1011.9 hPa North 1.4 km/h 8 km/h 93% 0.0 mm 0 W/m2
23:03 10.2 °C 9.1 °C 1011.9 hPa Calm   1.6 km/h 93% 0.0 mm 0 W/m2
23:08 10.2 °C 9.3 °C 1011.9 hPa Calm   3.2 km/h 94% 0.0 mm 0 W/m2
23:13 10.2 °C 9.3 °C 1011.9 hPa Calm   1.6 km/h 94% 0.0 mm 0 W/m2
23:18 10.2 °C 9.3 °C 1011.9 hPa Calm   1.6 km/h 94% 0.0 mm 0 W/m2
23:23 10.2 °C 9.3 °C 1011.9 hPa Calm   4.8 km/h 94% 0.0 mm 0 W/m2
23:28 10.3 °C 9.4 °C 1012.2 hPa SSW 3.2 km/h 4.8 km/h 94% 0.0 mm 0 W/m2
23:33 10.3 °C 9.4 °C 1012.2 hPa Calm   4.8 km/h 94% 0.0 mm 0 W/m2
23:38 10.4 °C 9.5 °C 1012.2 hPa Calm   3.2 km/h 94% 0.2 mm 0 W/m2
23:44 10.4 °C 9.5 °C 1012.2 hPa East 1.4 km/h 3.2 km/h 94% 0.2 mm 0 W/m2
23:49 10.5 °C 9.6 °C 1012.2 hPa East 7.9 km/h 8 km/h 94% 0.2 mm 0 W/m2
23:54 10.5 °C 9.6 °C 1012.5 hPa SSW 1.4 km/h 3.2 km/h 94% 0.2 mm 0 W/m2
23:59 10.6 °C 9.7 °C 1012.5 hPa SW 1.4 km/h 1.6 km/h 94% 0.2 mm 0 W/m2
Juneau County Weather
Compliments of Weather Underground - 4 mb